Hourly Weather Krainya Martynka

Today, 26 October, Monday

Time Temperature Precipitation Wind Pressure Humidity
00:00 +13°C° 0 mm 2 mps 721 mmHg 100%
01:00 +12°C° 0.1 mm 2 mps 721 mmHg 100%
02:00 +12°C° 0.6 mm 2 mps 721 mmHg 100%
03:00 +11°C° 1 mm 3 mps 721 mmHg 100%
04:00 +12°C° 0.7 mm 2 mps 720 mmHg 100%
05:00 +11°C° 0.5 mm 3 mps 720 mmHg 100%
06:00 +11°C° 0 mm 3 mps 720 mmHg 100%
07:00 +11°C° 0 mm 3 mps 720 mmHg 100%
08:00 +12°C° 0 mm 2 mps 720 mmHg 100%
09:00 +12°C° 0 mm 2 mps 720 mmHg 100%
10:00 +12°C° 0 mm 2 mps 720 mmHg 100%
11:00 +13°C° 0 mm 2 mps 720 mmHg 100%
12:00 +13°C° 0 mm 2 mps 720 mmHg 100%
13:00 +13°C° 0 mm 3 mps 720 mmHg 100%
14:00 +13°C° 0 mm 3 mps 721 mmHg 100%
15:00 +13°C° 0 mm 3 mps 721 mmHg 100%
16:00 +14°C° 0 mm 2 mps 720 mmHg 100%
17:00 +13°C° 0 mm 2 mps 720 mmHg 100%
18:00 +12°C° 0 mm 1 mps 720 mmHg 100%
19:00 +12°C° 0 mm 1 mps 720 mmHg 100%
20:00 +10°C° 0 mm 2 mps 720 mmHg 100%
21:00 +10°C° 0 mm 2 mps 721 mmHg 100%
22:00 +11°C° 0 mm 1 mps 720 mmHg 100%
23:00 +11°C° 0 mm 1 mps 721 mmHg 100%

Tomorrow, 27 October, Tuesday

Time Temperature Precipitation Wind Pressure Humidity
00:00 +11°C° 0 mm 1 mps 721 mmHg 100%
01:00 +11°C° 0 mm 1 mps 721 mmHg 100%
02:00 +11°C° 0 mm 1 mps 721 mmHg 100%
03:00 +11°C° 0 mm 1 mps 721 mmHg 100%
04:00 +11°C° 0 mm 1 mps 721 mmHg 100%
05:00 +11°C° 0 mm 1 mps 721 mmHg 100%
06:00 +11°C° 0 mm 1 mps 720 mmHg 99%
07:00 +11°C° 0 mm 1 mps 721 mmHg 97%
08:00 +11°C° 0 mm 1 mps 721 mmHg 96%
09:00 +10°C° 0 mm 0 mps 721 mmHg 96%
10:00 +12°C° 0 mm 1 mps 721 mmHg 99%
11:00 +13°C° 0 mm 1 mps 721 mmHg 99%
12:00 +14°C° 0 mm 1 mps 722 mmHg 98%
13:00 +14°C° 0 mm 1 mps 722 mmHg 98%
14:00 +14°C° 0 mm 1 mps 722 mmHg 99%
15:00 +14°C° 0 mm 1 mps 722 mmHg 100%
16:00 +14°C° 0 mm 1 mps 721 mmHg 100%
17:00 +12°C° 0 mm 0 mps 721 mmHg 100%
18:00 +13°C° 0 mm 1 mps 721 mmHg 99%
19:00 +13°C° 0 mm 1 mps 722 mmHg 89%
20:00 +13°C° 0 mm 1 mps 722 mmHg 86%
21:00 +13°C° 0 mm 1 mps 722 mmHg 87%
22:00 +13°C° 0 mm 1 mps 722 mmHg 87%
23:00 +12°C° 0 mm 1 mps 722 mmHg 91%

Day after tomorrow, 28 October, Wednesday

Time Temperature Precipitation Wind Pressure Humidity
00:00 +12°C° 0 mm 1 mps 722 mmHg 93%
01:00 +11°C° 0 mm 0 mps 722 mmHg 95%
02:00 +11°C° 0 mm 1 mps 722 mmHg 97%
03:00 +11°C° 0 mm 1 mps 722 mmHg 99%
04:00 +11°C° 0 mm 1 mps 722 mmHg 98%
05:00 +11°C° 0 mm 1 mps 722 mmHg 97%
06:00 +11°C° 0 mm 1 mps 722 mmHg 96%
07:00 +11°C° 0 mm 1 mps 723 mmHg 97%
08:00 +11°C° 0 mm 1 mps 723 mmHg 98%
09:00 +10°C° 0 mm 0 mps 723 mmHg 100%
10:00 +10°C° 0 mm 0 mps 723 mmHg 100%
11:00 +12°C° 0 mm 1 mps 723 mmHg 100%
12:00 +12°C° 0 mm 1 mps 724 mmHg 100%
13:00 +13°C° 0 mm 1 mps 724 mmHg 100%
14:00 +13°C° 0 mm 1 mps 724 mmHg 100%
15:00 +13°C° 0 mm 1 mps 724 mmHg 100%
16:00 +13°C° 0 mm 1 mps 723 mmHg 100%
17:00 +12°C° 0 mm 1 mps 724 mmHg 100%
18:00 +12°C° 0 mm 1 mps 724 mmHg 100%
19:00 +11°C° 0 mm 0 mps 724 mmHg 100%
20:00 +11°C° 0 mm 1 mps 724 mmHg 100%
21:00 +11°C° 0 mm 1 mps 724 mmHg 100%
22:00 +11°C° 0 mm 1 mps 724 mmHg 100%
23:00 +10°C° 0 mm 0 mps 725 mmHg 100%

29 October, Thursday

Time Temperature Precipitation Wind Pressure Humidity
00:00 +10°C° 0 mm 0 mps 725 mmHg 100%
01:00 +11°C° 0 mm 1 mps 724 mmHg 100%
02:00 +10°C° 0 mm 1 mps 725 mmHg 100%
03:00 +10°C° 0 mm 1 mps 725 mmHg 100%
04:00 +10°C° 0 mm 1 mps 725 mmHg 100%
05:00 +10°C° 0 mm 1 mps 725 mmHg 100%
06:00 +10°C° 0 mm 1 mps 725 mmHg 100%
07:00 +10°C° 0 mm 1 mps 725 mmHg 100%
08:00 +10°C° 0 mm 1 mps 725 mmHg 100%
09:00 +10°C° 0 mm 1 mps 725 mmHg 100%
10:00 +10°C° 0 mm 1 mps 725 mmHg 100%
11:00 +10°C° 0 mm 1 mps 726 mmHg 100%
12:00 +9°C° 0 mm 2 mps 726 mmHg 100%
13:00 +9°C° 0 mm 2 mps 726 mmHg 100%
14:00 +8°C° 0 mm 2 mps 726 mmHg 100%
15:00 +8°C° 0 mm 2 mps 726 mmHg 100%
16:00 +8°C° 0 mm 2 mps 726 mmHg 100%
17:00 +9°C° 0 mm 1 mps 726 mmHg 100%
18:00 +8°C° 0 mm 1 mps 726 mmHg 100%
19:00 +8°C° 0 mm 1 mps 726 mmHg 100%
20:00 +8°C° 0 mm 1 mps 726 mmHg 100%
21:00 +8°C° 0 mm 1 mps 726 mmHg 100%
22:00 +8°C° 0 mm 1 mps 727 mmHg 100%
23:00 +8°C° 0 mm 1 mps 727 mmHg 100%

30 October, Friday

Time Temperature Precipitation Wind Pressure Humidity
00:00 +7°C° 0 mm 1 mps 727 mmHg 100%
01:00 +7°C° 0.1 mm 1 mps 727 mmHg 100%
02:00 +7°C° 0.1 mm 1 mps 727 mmHg 100%
03:00 +7°C° 0 mm 1 mps 727 mmHg 100%
04:00 +7°C° 0 mm 1 mps 727 mmHg 100%
05:00 +7°C° 0 mm 1 mps 727 mmHg 100%
06:00 +7°C° 0 mm 1 mps 727 mmHg 100%
07:00 +7°C° 0 mm 1 mps 727 mmHg 100%
08:00 +7°C° 0 mm 1 mps 727 mmHg 100%
09:00 +7°C° 0 mm 1 mps 727 mmHg 100%
10:00 +7°C° 0 mm 1 mps 728 mmHg 100%
11:00 +7°C° 0 mm 1 mps 728 mmHg 100%
12:00 +7°C° 0.1 mm 1 mps 728 mmHg 100%
13:00 +8°C° 0.2 mm 1 mps 728 mmHg 100%
14:00 +8°C° 0.5 mm 1 mps 727 mmHg 100%
15:00 +8°C° 0.4 mm 1 mps 727 mmHg 100%
16:00 +7°C° 0.3 mm 2 mps 727 mmHg 100%
17:00 +7°C° 0.6 mm 2 mps 727 mmHg 100%
18:00 +7°C° 1.5 mm 2 mps 727 mmHg 100%
19:00 +7°C° 1.1 mm 2 mps 726 mmHg 100%
20:00 +7°C° 0.6 mm 2 mps 726 mmHg 100%
21:00 +7°C° 0.3 mm 2 mps 726 mmHg 100%
22:00 +7°C° 2.1 mm 2 mps 725 mmHg 100%
23:00 +8°C° 2.8 mm 1 mps 725 mmHg 100%

31 October, Saturday

Time Temperature Precipitation Wind Pressure Humidity
00:00 +8°C° 2.8 mm 1 mps 725 mmHg 100%
01:00 +7°C° 0.8 mm 2 mps 724 mmHg 100%
02:00 +8°C° 1.3 mm 1 mps 724 mmHg 100%
03:00 +8°C° 0.8 mm 1 mps 724 mmHg 100%
04:00 +7°C° 0.3 mm 3 mps 723 mmHg 100%
05:00 +6°C° 0 mm 4 mps 723 mmHg 99%
06:00 +5°C° 0 mm 5 mps 723 mmHg 93%
07:00 +4°C° 0 mm 6 mps 724 mmHg 92%
08:00 +4°C° 0 mm 7 mps 724 mmHg 94%
09:00 +4°C° 0 mm 7 mps 724 mmHg 91%
10:00 +5°C° 0 mm 7 mps 724 mmHg 91%
11:00 +5°C° 0 mm 7 mps 725 mmHg 90%
12:00 +5°C° 0 mm 8 mps 725 mmHg 90%
13:00 +5°C° 0 mm 8 mps 725 mmHg 90%
14:00 +4°C° 0 mm 8 mps 725 mmHg 90%
15:00 +4°C° 0 mm 8 mps 725 mmHg 90%
16:00 +2°C° 0 mm 8 mps 725 mmHg 91%
17:00 +1°C° 0 mm 8 mps 725 mmHg 92%
18:00 +2°C° 0 mm 7 mps 725 mmHg 91%
19:00 +2°C° 0 mm 7 mps 725 mmHg 90%
20:00 +2°C° 0 mm 6 mps 726 mmHg 90%
21:00 +1°C° 0 mm 4 mps 726 mmHg 92%
22:00 +1°C° 0 mm 5 mps 726 mmHg 93%
23:00 +1°C° 0 mm 6 mps 726 mmHg 92%
Show more